Location: Almena City Lake
(39.8850°N, 99.6804°W)
Time: 00:59:33
(UTC+00:00)

STARLINK-40 - Pass Details

Date: 18 February 2020
Orbit: 529 x 530 km, 53.0° (Epoch: 04 April)

Event Time Altitude Azimuth Distance (km) Brightness Sun altitude
Rises 01:54:41 0° 234° (SW) 2,654 8.0 -19.4°
Reaches altitude 10° 01:56:54 10° 236° (SW) 1,768 7.0 -19.8°
Maximum altitude 02:00:54 73° 322° (NW) 555 3.6 -20.6°
Enters shadow 02:01:49 50° 30° (NNE) 677 3.8 -20.8°
